sat.trackr.live / text

‹ back to catalog

STARLINK-3794

NORAD 52631 · 2022-052AK

PAYLOAD ACTIVE UNKNOWN

§ Identity

Operator
Country
US
Launch date
2022-05-14
Launch site
AFETR
Launch vehicle
Mass (kg)
RCS (m²)

Purposes: comms

External: N2YO · Heavens-Above · Gunter

§ Orbital elements

Epoch: 2026-05-25T02:00:58.413024Z

Period
95.44 min
Inclination
53.2164°
Eccentricity
0.0001343
Mean motion
15.08831571 rev/d
Perigee alt
538.8 km
Apogee alt
540.7 km
Semi-major
6,917.9 km
B*
3.7519e-5
RAAN
286.1791°
Arg perigee
91.1404°
Mean anomaly
268.9742°
Rev number
22,253

§ Raw data

STARLINK-37941 52631U 22052AK  26145.08400941  .00000309  00000+0  37519-4 0  99922 52631  53.2164 286.1791 0001343  91.1404 268.9742 15.08831571222535

JSON: /api/v1/satellites/52631 · /tle

For live sub-satellite position, see the globe view (requires WebGL).

§ Visibility from observer

Set your observer location to see the next 7 days of passes ≥ 10°. The values pass through the URL so the page stays shareable.

No JS? Fill the form by hand. The geolocation button needs JavaScript.